Weather History for KESF - August, 2013

Change the Weather History Date:

Sunday, August 25, 2013

  Actual Average Record
Temperature  
Mean Temperature 82 °F -  
Max Temperature 93 °F 91 °F 100 °F (1999)
Min Temperature 71 °F 70 °F 57 °F (1997)
Cooling Degree Days 17    
Growing Degree Days 32 (Base 50)    
Moisture  
Dew Point 71 °F    
Average Humidity 77    
Maximum Humidity 94    
Minimum Humidity 47    
Precipitation  
Precipitation 0.01 in - - ()
Sea Level Pressure  
Sea Level Pressure 30.12 in    
Wind  
Wind Speed 3 mph (East)    
Max Wind Speed 13 mph    
Max Gust Speed 20 mph    
Visibility 8 miles    
Events      
Averages and records for this station are not official NWS values.
T = Trace of Precipitation, MM = Missing Value Source: NWS Daily Summary

Daily Weather History Graph

Daily Weather History Graph

Search for Another Location

Airport or City:

Trip Planner

Search our weather history database for the weather conditions in past years. The results will help you decide how hot, cold, wet, or windy it might be!

Date:

Astronomy

Aug. 25, 2013 Rise Set
Actual Time 6:40 AM CDT 7:40 PM CDT
Civil Twilight 6:15 AM CDT 8:05 PM CDT
Nautical Twilight 5:46 AM CDT 8:35 PM CDT
Astronomical Twilight 5:15 AM CDT 9:05 PM CDT
Moon 10:36 PM CDT (8/25) 11:20 AM CDT (8/25)
Length of Visible Light 13h 49m
Length of Day
12h 59m
Waning Gibbous, 75% of the Moon is Illuminated
Aug 25
Waning Gibbous
Aug 28
Last Quarter
Sep 5
New
Sep 12
First Quarter
Sep 19
Full

Hourly Weather History & Observations

Time (CDT) Temp. Heat Index Dew Point Humidity Pressure Visibility Wind Dir Wind Speed Gust Speed Precip Events Conditions
12:53 AM 75.9 °F - 72.0 °F 87% 30.09 in 10.0 mi Calm Calm - N/A   Clear
1:53 AM 73.9 °F - 71.1 °F 91% 30.09 in 5.0 mi Calm Calm - N/A   Clear
2:53 AM 73.9 °F - 71.1 °F 91% 30.09 in 10.0 mi Calm Calm - N/A   Clear
3:53 AM 73.0 °F - 71.1 °F 93% 30.09 in 4.0 mi Calm Calm - N/A   Clear
4:05 AM 73.4 °F - 69.8 °F 88% 30.10 in 1.8 mi Calm Calm - N/A   Partly Cloudy
4:09 AM 71.6 °F - 69.8 °F 94% 30.10 in 0.8 mi Calm Calm - N/A   Mist
4:27 AM 71.6 °F - 69.8 °F 94% 30.10 in 1.2 mi Calm Calm - N/A   Scattered Clouds
4:31 AM 73.4 °F - 69.8 °F 88% 30.10 in 4.0 mi NNE 3.5 mph - N/A   Scattered Clouds
4:53 AM 73.0 °F - 70.0 °F 90% 30.10 in 10.0 mi Calm Calm - N/A   Clear
5:53 AM 73.0 °F - 70.0 °F 90% 30.12 in 10.0 mi ENE 3.5 mph - N/A   Clear
6:53 AM 73.0 °F - 70.0 °F 90% 30.12 in 10.0 mi NE 3.5 mph - 0.01 in   Clear
7:53 AM 75.0 °F - 71.1 °F 87% 30.14 in 10.0 mi ENE 3.5 mph - N/A   Clear
8:36 AM 78.8 °F - 71.6 °F 78% 30.14 in 10.0 mi East 6.9 mph - N/A   Partly Cloudy
8:53 AM 79.0 °F - 73.0 °F 82% 30.14 in 10.0 mi East 5.8 mph - N/A   Partly Cloudy
9:53 AM 82.9 °F 88.0 °F 72.0 °F 69% 30.15 in 10.0 mi ESE 10.4 mph - N/A   Partly Cloudy
10:53 AM 87.1 °F 92.8 °F 71.1 °F 59% 30.16 in 10.0 mi East 12.7 mph 18.4 mph N/A   Clear
11:53 AM 88.0 °F 93.8 °F 71.1 °F 57% 30.15 in 10.0 mi East 11.5 mph 19.6 mph N/A   Scattered Clouds
12:53 PM 89.1 °F 95.0 °F 71.1 °F 55% 30.14 in 10.0 mi ESE 12.7 mph 19.6 mph N/A   Scattered Clouds
1:53 PM 89.1 °F 95.0 °F 71.1 °F 55% 30.13 in 10.0 mi East 9.2 mph 18.4 mph N/A   Scattered Clouds
2:53 PM 93.0 °F 99.0 °F 70.0 °F 47% 30.11 in 10.0 mi East 8.1 mph - N/A   Clear
3:53 PM 90.0 °F 95.4 °F 70.0 °F 52% 30.09 in 10.0 mi ESE 9.2 mph - N/A   Mostly Cloudy
4:53 PM 90.0 °F 95.4 °F 70.0 °F 52% 30.09 in 10.0 mi ESE 12.7 mph - N/A   Mostly Cloudy
5:53 PM 87.1 °F 92.8 °F 71.1 °F 59% 30.10 in 10.0 mi ESE 5.8 mph - N/A   Clear
6:53 PM 86.0 °F 93.0 °F 73.0 °F 65% 30.10 in 10.0 mi East 4.6 mph - N/A   Partly Cloudy
7:53 PM 81.0 °F 86.2 °F 73.9 °F 79% 30.11 in 10.0 mi Calm Calm - N/A   Clear
8:53 PM 79.0 °F - 73.9 °F 84% 30.13 in 10.0 mi Calm Calm - N/A   Clear
9:53 PM 78.1 °F - 73.0 °F 84% 30.16 in 10.0 mi Calm Calm - N/A   Clear
10:53 PM 75.9 °F - 73.0 °F 91% 30.17 in 10.0 mi Calm Calm - N/A   Clear
11:53 PM 75.0 °F - 72.0 °F 90% 30.16 in 6.0 mi Calm Calm - N/A   Clear